Location: Santa Giusta
(39.8800°N, 8.6069°E)
Time: 16:44:22
(UTC+00:00)

Okean O Rocket - Pass Details

Date: 02 February 2023
Orbit: 620 x 643 km, 98.1° (Epoch: 30 March)

Event Time Altitude Azimuth Distance (km) Brightness Sun altitude
Rises 18:50:52 0° 173° (S) 2,898 5.0 -24.2°
Reaches altitude 10° 18:53:03 10° 176° (S) 1,999 4.1 -24.6°
Maximum altitude 18:57:22 65° 258° (WSW) 695 1.9 -25.5°
Drops below altitude 10° 19:01:46 10° 341° (NNW) 2,030 4.4 -26.3°
Sets 19:04:00 0° 345° (NNW) 2,947 5.2 -26.7°
